Hourly Data Report for August 31, 2018

TORONTO CITY
ONTARIO
Current Station Operator: ECCC - MSC

43°40'00.000" N
79°24'00.000" W
112.50 m
6158355
71508
XTO

Download Data

Hourly Data (August 2018)
Hourly Data Report for August 31, 2018
TIME
LST
Temp Definition
°C
Dew Point Definition
°C
Rel Hum Definition
%
Precip. Amount Definition
mm

Wind Dir Definition
10's deg

Wind Spd Definition
km/h
Visibility Definition
km
Stn Press Definition
kPa
Hmdx Definition


Wind Chill Definition


Weather Definition


00:00 17.8 12.2 70 0.0 LegendMM LegendMM   100.98     LegendNANA
01:00 17.6 12.3 71 0.0 LegendMM LegendMM   100.95     LegendNANA
02:00 17.6 12.5 72 0.0 LegendMM LegendMM   100.95     LegendNANA
03:00 17.4 12.5 73 0.0 LegendMM LegendMM   100.94     LegendNANA
04:00 17.5 12.6 73 0.0 LegendMM LegendMM   100.92     LegendNANA
05:00 17.6 12.6 72 0.0 LegendMM LegendMM   100.93     LegendNANA
06:00 17.7 13.2 75 0.0 LegendMM LegendMM   100.98     LegendNANA
07:00 17.9 13.0 73 0.0 LegendMM LegendMM   101.00     LegendNANA
08:00 18.8 12.3 66 0.0 LegendMM LegendMM   100.99     LegendNANA
09:00 18.8 12.2 65 0.0 LegendMM LegendMM   100.96     LegendNANA
10:00 19.5 12.0 62 0.0 LegendMM LegendMM   100.94     LegendNANA
11:00 20.1 12.4 61 0.0 LegendMM LegendMM   100.96     LegendNANA
12:00 21.1 12.6 58 0.0 LegendMM LegendMM   101.00     LegendNANA
13:00 22.2 12.5 54 0.0 LegendMM LegendMM   100.98 25   LegendNANA
14:00 21.9 11.8 53 0.0 LegendMM LegendMM   100.95     LegendNANA
15:00 22.0 12.1 53 0.0 LegendMM LegendMM   100.90     LegendNANA
16:00 21.5 12.9 58 0.0 LegendMM LegendMM   100.85     LegendNANA
17:00 21.4 13.2 59 0.0 LegendMM LegendMM   100.84     LegendNANA
18:00 21.3 13.0 59 0.0 LegendMM LegendMM   100.84     LegendNANA
19:00 20.3 13.3 64 0.0 LegendMM LegendMM   100.82     LegendNANA
20:00 20.1 14.2 69 0.0 LegendMM LegendMM   100.83     LegendNANA
21:00 19.6 14.5 72 0.0 LegendMM LegendMM   100.84     LegendNANA
22:00 18.8 14.8 78 0.0 LegendMM LegendMM   100.83     LegendNANA
23:00 19.0 15.0 78 0.0 LegendMM LegendMM   100.80     LegendNANA

Notes on Data Quality.

Legend

  • E = Estimated
  • M = Missing
  • NA = Not Available*
  • [empty] = Indicates an unobserved value
Date modified: